Weather reports worldwide

Advertisment
Dalwhinnie, United Kingdom (99005): temperature & dewpoint: 15.01.2020 23:00:00 - 21.01.2020 23:00:00 (GMT)Dalwhinnie, United Kingdom (99005): precipitation: 15.01.2020 23:00:00 - 21.01.2020 23:00:00 (GMT)
Date & Time tt [°C] td [°C] rr [mm]
21.01.2020 23:00:00 8,9 6,6 0,0
21.01.2020 22:00:00 8,1 6,3 0,0
21.01.2020 21:00:00 8,0 6,6 0,0
21.01.2020 20:00:00 8,3 6,5 0,0
21.01.2020 19:00:00 8,2 6,5 0,0
21.01.2020 18:00:00 8,5 6,6 0,0
21.01.2020 17:00:00 8,5 6,8 0,0
21.01.2020 16:00:00 8,3 7,1 0,0
21.01.2020 15:00:00 8,0 7,3 0,0
21.01.2020 14:00:00 8,0 7,2 0,0
21.01.2020 13:00:00 8,3 7,0 0,0
21.01.2020 12:00:00 8,1 6,8 0,0
21.01.2020 11:00:00 7,7 7,1 0,0
21.01.2020 10:00:00 6,9 6,5 0,0
21.01.2020 09:00:00 6,8 6,3 0,2
21.01.2020 08:00:00 6,9 6,3 0,0
21.01.2020 07:00:00 6,8 6,1 0,0
21.01.2020 06:00:00 6,9 6,2 0,0
21.01.2020 05:00:00 7,0 6,1 0,0
21.01.2020 04:00:00 7,1 6,0 0,0
21.01.2020 03:00:00 7,3 5,9 0,0
21.01.2020 02:00:00 7,0 5,4 0,0
21.01.2020 01:00:00 7,2 5,5 0,0
21.01.2020 00:00:00 6,9 5,3 0,0
20.01.2020 23:00:00 6,7 4,9 0,0
20.01.2020 22:00:00 6,6 4,4 0,0
20.01.2020 21:00:00 6,4 4,0 0,0
20.01.2020 20:00:00 6,4 3,5 0,0
20.01.2020 19:00:00 6,5 3,0 0,0
20.01.2020 18:00:00 6,6 3,0 0,0
20.01.2020 17:00:00 6,5 3,0 0,0
20.01.2020 16:00:00 6,7 3,0 0,0
20.01.2020 15:00:00 6,9 3,2 0,0
20.01.2020 14:00:00 7,2 3,5 0,0
20.01.2020 13:00:00 7,3 3,4 0,0
20.01.2020 12:00:00 7,8 3,4 0,0
20.01.2020 11:00:00 7,3 2,9 0,0
20.01.2020 10:00:00 5,8 1,7 0,0
20.01.2020 09:00:00 5,8 2,2 0,0
20.01.2020 08:00:00 6,0 3,0 0,0
20.01.2020 07:00:00 5,6 3,6 0,0
20.01.2020 06:00:00 5,8 3,5 0,0
20.01.2020 05:00:00 5,5 3,1 0,0
20.01.2020 04:00:00 5,8 3,0 0,0
20.01.2020 03:00:00 5,9 2,7 0,0
20.01.2020 02:00:00 6,1 2,4 0,0
20.01.2020 01:00:00 5,7 2,4 0,0
20.01.2020 00:00:00 5,8 2,3 0,0
19.01.2020 23:00:00 5,5 2,4 0,0
19.01.2020 22:00:00 5,6 2,2 0,0
19.01.2020 21:00:00 5,6 1,8 0,0
19.01.2020 20:00:00 5,0 1,9 0,0
19.01.2020 19:00:00 4,7 1,2 0,0
19.01.2020 18:00:00 4,8 -0,1 0,0
19.01.2020 17:00:00 4,8 -0,2 0,0
19.01.2020 16:00:00 4,7 -0,7 0,0
19.01.2020 15:00:00 4,2 -0,7 0,0
19.01.2020 14:00:00 4,8 -3,1 0,0
19.01.2020 13:00:00 3,4 -0,5 0,0
19.01.2020 12:00:00 4,2 -2,2 0,0
19.01.2020 11:00:00 3,8 0,0 0,0
19.01.2020 10:00:00 2,7 0,5 0,0
19.01.2020 09:00:00 2,4 -0,1 0,0
19.01.2020 08:00:00 2,8 0,2 0,0
19.01.2020 07:00:00 2,8 -1,6 0,0
19.01.2020 06:00:00 2,8 -1,2 0,0
19.01.2020 05:00:00 1,5 -2,2 0,0
19.01.2020 04:00:00 0,9 -1,7 0,0
19.01.2020 03:00:00 -0,4 -2,0 0,0
19.01.2020 02:00:00 -0,8 -3,7 0,0
19.01.2020 01:00:00 1,0 -2,1 0,0
19.01.2020 00:00:00 -0,9 -3,0 0,0
18.01.2020 23:00:00 0,0 -2,9 0,0
18.01.2020 22:00:00 -1,9 -3,9 0,0
18.01.2020 21:00:00 -1,0 -3,4 0,0
18.01.2020 20:00:00 0,0 -3,3 0,0
18.01.2020 19:00:00 -1,3 -3,9 0,0
18.01.2020 18:00:00 -1,1 -3,6 0,0
18.01.2020 17:00:00 0,3 -3,1 0,0
18.01.2020 16:00:00 2,5 -2,0 0,0
18.01.2020 15:00:00 2,3 -2,4 0,0
18.01.2020 14:00:00 2,5 -2,0 0,0
18.01.2020 13:00:00 3,0 -1,5 0,6
18.01.2020 12:00:00 2,1 -1,5 0,8
18.01.2020 11:00:00 1,5 -2,0 0,2
18.01.2020 10:00:00 1,4 -1,1 0,0
18.01.2020 09:00:00 1,4 -1,2 0,0
18.01.2020 08:00:00 1,3 -1,2 0,0
18.01.2020 07:00:00 1,5 -1,6 0,0
18.01.2020 06:00:00 1,1 -1,3 0,0
18.01.2020 05:00:00 0,9 -0,9 0,2
18.01.2020 04:00:00 0,6 -0,9 0,0
18.01.2020 03:00:00 0,7 -0,7 0,0
18.01.2020 02:00:00 1,4 -1,2 0,0
18.01.2020 01:00:00 1,5 -1,3 0,0
18.01.2020 00:00:00 1,9 -2,1 0,0
17.01.2020 23:00:00 1,7 -1,9 0,0
17.01.2020 22:00:00 2,5 -1,9 0,0
17.01.2020 21:00:00 2,2 -1,1 0,0
17.01.2020 20:00:00 2,2 -0,7 0,4
17.01.2020 19:00:00 2,2 -0,3 0,4
17.01.2020 18:00:00 2,4 0,4 0,6
17.01.2020 17:00:00 2,7 0,3 0,0
17.01.2020 16:00:00 2,9 0,5 0,0
17.01.2020 15:00:00 3,4 0,1 0,2
17.01.2020 14:00:00 3,6 -0,1 0,0
17.01.2020 13:00:00 3,5 1,2 0,0
17.01.2020 12:00:00 2,4 1,1 0,4
17.01.2020 11:00:00 2,6 1,1 0,0
17.01.2020 10:00:00 2,3 0,6 0,0
17.01.2020 09:00:00 2,5 0,6 0,0
17.01.2020 08:00:00 2,1 0,4 0,2
17.01.2020 07:00:00 2,8 0,7 0,0
17.01.2020 06:00:00 2,8 0,4 0,0
17.01.2020 05:00:00 3,1 0,7 0,0
17.01.2020 04:00:00 3,3 0,7 0,0
17.01.2020 03:00:00 3,5 0,1 0,0
17.01.2020 02:00:00 3,5 0,3 0,0
17.01.2020 01:00:00 3,7 1,4 0,2
17.01.2020 00:00:00 4,0 1,9 0,2
16.01.2020 23:00:00 4,2 1,9 0,0
16.01.2020 22:00:00 4,6 1,5 0,0
16.01.2020 21:00:00 4,7 2,7 0,0
16.01.2020 20:00:00 5,4 2,8 0,6
16.01.2020 19:00:00 6,0 4,6 1,4
16.01.2020 18:00:00 4,4 2,8 0,8
16.01.2020 17:00:00 4,1 2,6 4,8
16.01.2020 16:00:00 3,8 1,9 5,6
16.01.2020 15:00:00 4,5 2,6 0,2
16.01.2020 14:00:00 5,3 2,6 0,0
16.01.2020 13:00:00 5,5 2,9 0,0
16.01.2020 12:00:00 5,6 3,3 0,4
16.01.2020 11:00:00 4,5 3,0 0,6
16.01.2020 10:00:00 4,4 2,9 0,8
16.01.2020 09:00:00 5,4 3,0 0,0
16.01.2020 08:00:00 4,2 2,1 0,2
16.01.2020 07:00:00 3,8 1,6 0,0
16.01.2020 06:00:00 3,2 0,9 0,0
16.01.2020 05:00:00 2,9 0,8 0,0
16.01.2020 04:00:00 3,0 0,4 0,0
16.01.2020 03:00:00 3,1 0,9 0,0
16.01.2020 02:00:00 2,9 0,7 0,0
16.01.2020 01:00:00 2,4 1,0 1,2
16.01.2020 00:00:00 2,7 1,1 1,2
15.01.2020 23:00:00 2,9 0,5 0,6

tt = temperature
td = dewpoint
rr = precipitation

Next stations